Weather reports worldwide

Advertisment
Cassley, United Kingdom (99003): temperature & dewpoint: 19.06.2017 23:00:00 - 25.06.2017 23:00:00 (BST)Cassley, United Kingdom (99003): temperature 5cm: 19.06.2017 23:00:00 - 25.06.2017 23:00:00 (BST)Cassley, United Kingdom (99003): visibility: 19.06.2017 23:00:00 - 25.06.2017 23:00:00 (BST)Cassley, United Kingdom (99003): precipitation: 19.06.2017 23:00:00 - 25.06.2017 23:00:00 (BST)
Date & Time tt [°C] td [°C] tt 5cm [°C] vv [km] rr [mm]
25.06.2017 23:00:00 9,6 7,4 - - 0,0
25.06.2017 22:00:00 10,1 8,1 - - 0,2
25.06.2017 21:00:00 10,1 8,1 - - 0,0
25.06.2017 20:00:00 11,2 7,5 - - 0,0
25.06.2017 19:00:00 12,1 7,2 - - 0,0
25.06.2017 18:00:00 11,9 7,1 - - 0,0
25.06.2017 17:00:00 11,7 7,5 - - 0,2
25.06.2017 16:00:00 11,5 7,4 - - 0,0
25.06.2017 15:00:00 12,0 6,9 - - 0,0
25.06.2017 14:00:00 11,6 8,0 - - 0,0
25.06.2017 13:00:00 10,3 8,1 - - 0,2
25.06.2017 12:00:00 11,5 7,5 - - 0,0
25.06.2017 11:00:00 10,7 9,0 - - 0,2
25.06.2017 10:00:00 11,2 6,2 - 29 0,0
25.06.2017 09:00:00 9,4 6,6 - - 0,0
25.06.2017 08:00:00 11,0 6,1 - - 0,0
25.06.2017 07:00:00 10,2 6,1 - - 0,0
25.06.2017 06:00:00 9,9 6,4 - - 0,0
25.06.2017 05:00:00 10,0 6,4 - - 0,0
25.06.2017 04:00:00 10,0 5,9 - - 0,0
25.06.2017 03:00:00 9,9 6,2 - - 0,0
25.06.2017 02:00:00 9,9 6,6 - - 0,0
25.06.2017 01:00:00 9,8 6,6 - - 0,0
25.06.2017 00:00:00 9,5 7,3 - - 1,2
24.06.2017 23:00:00 9,0 7,1 - - 0,8
24.06.2017 22:00:00 10,0 8,1 - - 0,4
24.06.2017 21:00:00 9,9 8,6 - - 1,2
24.06.2017 20:00:00 9,9 8,7 - - 3,4
24.06.2017 19:00:00 9,6 8,9 - - 2,6
24.06.2017 18:00:00 10,2 7,2 - - 0,4
24.06.2017 17:00:00 12,6 6,1 - - 0,0
24.06.2017 16:00:00 12,9 5,2 - - 0,0
24.06.2017 15:00:00 12,4 6,5 - - 0,0
24.06.2017 14:00:00 11,7 6,3 - - 0,0
24.06.2017 13:00:00 10,5 7,1 - - 0,2
24.06.2017 12:00:00 11,2 7,6 - - 0,8
24.06.2017 11:00:00 11,4 7,3 - - 1,0
24.06.2017 10:00:00 11,1 6,6 - 17 0,2
24.06.2017 09:00:00 9,9 6,7 - - 0,4
24.06.2017 08:00:00 11,0 6,7 - - 0,4
24.06.2017 07:00:00 9,7 6,6 - - 0,2
24.06.2017 06:00:00 9,5 6,2 - - 0,4
24.06.2017 05:00:00 9,6 5,9 - - 1,4
24.06.2017 04:00:00 9,3 6,3 - - 1,0
24.06.2017 03:00:00 9,5 5,8 - - 0,6
24.06.2017 02:00:00 10,1 6,1 - - 2,0
24.06.2017 01:00:00 9,6 6,9 - - 1,4
24.06.2017 00:00:00 10,3 6,3 - - 0,2
23.06.2017 23:00:00 10,8 6,4 - - 0,4
23.06.2017 22:00:00 9,9 7,0 - 10 0,4
23.06.2017 21:00:00 11,5 5,7 - - 0,0
23.06.2017 20:00:00 11,6 5,8 - - 0,0
23.06.2017 19:00:00 12,7 5,3 - - 0,0
23.06.2017 18:00:00 13,7 6,7 - - 0,0
23.06.2017 17:00:00 14,6 6,4 - - 0,0
23.06.2017 16:00:00 13,3 7,3 - - 0,0
23.06.2017 15:00:00 14,3 7,4 - - 0,0
23.06.2017 14:00:00 13,9 6,3 - - 0,0
23.06.2017 13:00:00 13,0 7,3 - - 0,0
23.06.2017 12:00:00 12,5 8,2 - - 0,0
23.06.2017 11:00:00 12,1 9,6 - - 0,0
23.06.2017 10:00:00 11,9 9,5 - 0,9 0,6
23.06.2017 09:00:00 12,3 9,9 - - 0,2
23.06.2017 08:00:00 12,8 9,4 - - 0,4
23.06.2017 07:00:00 14,2 11,4 - - 0,0
23.06.2017 06:00:00 12,9 11,8 - - 0,4
23.06.2017 05:00:00 13,5 11,1 - - 0,2
23.06.2017 04:00:00 13,6 10,5 - - 0,0
23.06.2017 03:00:00 13,2 10,3 - - 0,0
23.06.2017 02:00:00 12,7 10,6 - - 0,0
23.06.2017 01:00:00 12,0 10,5 - - 0,0
23.06.2017 00:00:00 11,7 10,6 - - 0,0
22.06.2017 23:00:00 12,2 10,9 - - 0,2
22.06.2017 22:00:00 12,0 10,1 - - 1,0
22.06.2017 21:00:00 12,1 10,6 - - 0,8
22.06.2017 20:00:00 13,1 11,0 - - 0,2
22.06.2017 19:00:00 14,2 9,9 - - 0,0
22.06.2017 18:00:00 15,8 9,7 - - 0,0
22.06.2017 17:00:00 16,0 9,3 - - 0,0
22.06.2017 16:00:00 15,8 9,0 - - 0,0
22.06.2017 15:00:00 17,0 8,6 - - 0,0
22.06.2017 14:00:00 16,5 7,8 - - 0,0
22.06.2017 13:00:00 14,7 8,1 - - 0,0
22.06.2017 12:00:00 14,8 8,4 - - 0,0
22.06.2017 11:00:00 14,6 8,6 - - 0,0
22.06.2017 10:00:00 12,5 9,5 - 0,4 0,0
22.06.2017 09:00:00 12,8 9,3 - - 0,0
22.06.2017 08:00:00 12,2 9,4 - - 0,0
22.06.2017 07:00:00 11,8 10,0 - - 0,0
22.06.2017 06:00:00 11,1 9,9 - - 0,0
22.06.2017 05:00:00 11,0 9,7 - - 0,0
22.06.2017 04:00:00 11,5 10,2 - - 0,0
22.06.2017 03:00:00 12,0 11,0 - - 0,0
22.06.2017 02:00:00 13,3 12,2 - - 0,0
22.06.2017 01:00:00 13,8 12,2 - - 0,0
22.06.2017 00:00:00 14,4 11,9 - - 0,0
21.06.2017 23:00:00 14,3 11,5 - - 0,0
21.06.2017 22:00:00 15,3 11,6 - - 0,0
21.06.2017 21:00:00 17,0 12,3 - - 0,0
21.06.2017 20:00:00 17,3 13,6 - - 0,0
21.06.2017 19:00:00 20,0 14,1 - - 0,0
21.06.2017 18:00:00 20,5 14,6 - - 0,0
21.06.2017 17:00:00 21,2 14,8 - - 0,0
21.06.2017 16:00:00 22,8 14,8 - - 0,0
21.06.2017 15:00:00 23,4 15,4 - - 0,0
21.06.2017 14:00:00 19,8 14,4 - - 0,0
21.06.2017 13:00:00 18,2 12,7 - - 0,0
21.06.2017 12:00:00 17,8 13,2 - - 0,0
21.06.2017 11:00:00 15,2 11,5 - - 0,0
21.06.2017 10:00:00 14,7 10,8 14,7 3,9 0,0
21.06.2017 09:00:00 12,5 9,6 - - 0,0
21.06.2017 08:00:00 10,7 9,7 - - 0,0
21.06.2017 07:00:00 9,4 9,0 - - 0,0
21.06.2017 06:00:00 8,8 8,4 - - 0,0
21.06.2017 05:00:00 7,6 7,4 - - 0,0
21.06.2017 04:00:00 6,8 6,3 - - 0,0
21.06.2017 03:00:00 7,0 6,4 - - 0,0
21.06.2017 02:00:00 6,9 6,2 - - 0,0
21.06.2017 01:00:00 7,8 6,5 - - 0,0
21.06.2017 00:00:00 9,1 7,6 - - 0,0
20.06.2017 23:00:00 10,0 8,1 - - 0,0
20.06.2017 22:00:00 10,9 7,4 - - 0,0
20.06.2017 21:00:00 13,7 8,6 - - 0,0
20.06.2017 20:00:00 14,7 8,0 - - 0,0
20.06.2017 19:00:00 15,6 7,2 - - 0,0
20.06.2017 18:00:00 15,3 7,1 - - 0,0
20.06.2017 17:00:00 14,7 8,0 - - 0,0
20.06.2017 16:00:00 14,2 7,2 - - 0,0
20.06.2017 15:00:00 14,5 8,2 - - 0,0
20.06.2017 14:00:00 13,7 7,8 - - 0,0
20.06.2017 13:00:00 12,0 7,6 - - 0,0
20.06.2017 12:00:00 12,5 7,7 - - 0,0
20.06.2017 11:00:00 12,1 7,3 - - 0,0
20.06.2017 10:00:00 11,0 8,5 12,3 26 0,0
20.06.2017 09:00:00 12,0 6,1 - - 0,0
20.06.2017 08:00:00 11,4 7,0 - - 0,0
20.06.2017 07:00:00 10,5 7,8 - - 0,0
20.06.2017 06:00:00 9,6 6,8 - - 0,2
20.06.2017 05:00:00 9,8 7,6 - - 0,0
20.06.2017 04:00:00 9,4 7,8 - - 0,0
20.06.2017 03:00:00 9,4 7,8 - - 0,0
20.06.2017 02:00:00 10,2 6,5 - - 0,0
20.06.2017 01:00:00 10,6 6,3 - - 0,0
20.06.2017 00:00:00 10,8 6,3 - - 0,0
19.06.2017 23:00:00 10,5 6,6 - - 0,0

tt = temperature
td = dewpoint
tt 5cm = temperature 5cm
vv = visibility
rr = precipitation

Next stations